FW5354 Weather Reports


Display with metric or nautical units.
time (UTC)temp
F
wind
direction
speed
MPH
gust
MPH
rain 1hr
in
rain 24hr
in
rain mn
in
humidity
%
barometer
mb
20260510191616 92 102 0.0 3.0 0.00 0.00 0.00 54 1009.9
20260510184551 92 98 1.0 4.0 0.00 0.00 0.00 56 1010.3
20260510181542 91 99 0.0 4.0 0.00 0.00 0.00 57 1010.5
20260510180040 91 108 0.0 3.0 0.00 0.00 0.00 58 1010.8
20260510174537 90 105 0.0 3.0 0.00 0.00 0.00 60 1011.0
20260510171540 89 99 0.0 3.0 0.00 0.00 0.00 62 1011.2
20260510170035 89 104 0.0 4.0 0.00 0.00 0.00 63 1011.5
20260510164531 87 116 0.0 3.0 0.00 0.00 0.00 64 1011.7
20260510161524 87 110 0.0 3.0 0.00 0.00 0.00 66 1012.1
20260510160021 86 131 0.0 2.0 0.00 0.00 0.00 69 1012.1
20260510154521 85 221 0.0 4.0 0.00 0.00 0.00 70 1012.3
20260510151519 83 95 1.0 4.0 0.00 0.00 0.00 73 1012.5
20260510150019 81 200 1.0 2.0 0.00 0.00 0.00 75 1012.5
20260510144532 81 85 0.0 3.0 0.00 0.00 0.00 75 1012.4
20260510141516 80 199 1.0 5.0 0.00 0.00 0.00 76 1012.3
20260510140016 79 78 1.0 4.0 0.00 0.00 0.00 75 1012.4
20260510134515 78 218 1.0 4.0 0.00 0.00 0.00 75 1012.2
20260510131510 77 160 0.0 2.0 0.00 0.00 0.00 72 1011.6
20260510130013 76 105 0.0 3.0 0.00 0.00 0.00 71 1011.4
20260510124508 76 160 0.0 2.0 0.00 0.00 0.00 68 1011.2
20260510121505 75 105 0.0 0.0 0.00 0.00 0.00 67 1010.6
20260510120002 75 105 0.0 0.0 0.00 0.00 0.00 67 1010.3
20260510114559 75 104 0.0 0.0 0.00 0.00 0.00 66 1010.0
20260510113158 74 104 0.0 0.0 0.00 0.00 0.00 67 1009.4
20260510111558 75 104 0.0 2.0 0.00 0.00 0.00 68 1009.1
20260510110057 75 104 0.0 2.0 0.00 0.00 0.00 68 1008.9
20260510104604 75 105 0.0 1.0 0.00 0.00 0.00 65 1009.0
20260510103159 75 105 0.0 0.0 0.00 0.00 0.00 65 1008.8
20260510101555 75 105 0.0 2.0 0.00 0.00 0.00 65 1008.7
20260510100055 75 104 0.0 4.0 0.00 0.00 0.00 64 1008.7
20260510094605 74 105 0.0 4.0 0.00 0.00 0.00 63 1008.5
20260510093154 74 106 0.0 3.0 0.00 0.00 0.00 62 1008.4
20260510091554 74 106 0.0 2.0 0.00 0.00 0.00 62 1008.3
20260510090055 74 106 0.0 0.0 0.00 0.00 0.00 63 1008.4
20260510084557 74 106 0.0 0.0 0.00 0.00 0.00 64 1008.5
20260510083152 74 106 0.0 0.0 0.00 0.00 0.00 65 1008.4
20260510081552 74 106 0.0 0.0 0.00 0.00 0.00 66 1008.4
20260510080051 74 106 0.0 1.0 0.00 0.00 0.00 67 1008.4
20260510074550 74 106 0.0 1.0 0.00 0.00 0.00 68 1008.5
20260510073150 74 106 0.0 0.0 0.00 0.00 0.00 69 1008.8
20260510071553 75 106 0.0 0.0 0.00 0.00 0.00 70 1008.8
20260510070046 75 106 0.0 0.0 0.00 0.00 0.00 71 1008.8
20260510064544 75 106 0.0 0.0 0.00 0.00 0.00 71 1008.8
20260510063144 75 142 0.0 0.0 0.00 0.00 0.00 71 1008.8
20260510061543 76 146 0.0 1.0 0.00 0.00 0.00 71 1008.8
20260510060042 76 103 0.0 3.0 0.00 0.00 0.00 72 1008.7
20260510054542 75 103 0.0 1.0 0.00 0.00 0.00 72 1008.8
20260510053142 76 103 0.0 1.0 0.00 0.00 0.00 73 1009.0
20260510051547 76 96 0.0 2.0 0.00 0.00 0.00 73 1009.0
20260510050041 76 109 0.0 0.0 0.00 0.00 0.00 73 1009.0
20260510044539 77 148 0.0 1.0 0.00 0.00 0.00 74 1009.0
20260510043138 77 120 0.0 1.0 0.00 0.00 0.00 74 1009.1
20260510041535 77 122 0.0 3.0 0.00 0.00 0.00 75 1009.0
20260510040040 78 115 0.0 2.0 0.00 0.00 0.00 75 1009.0
20260510034532 78 112 0.0 6.0 0.00 0.00 0.00 76 1009.2
20260510033132 79 108 0.0 3.0 0.00 0.00 0.00 72 1009.2
20260510031530 79 113 0.0 3.0 0.00 0.00 0.00 69 1009.0
20260510030028 78 135 0.0 1.0 0.00 0.00 0.00 71 1009.0
20260510024525 78 138 0.0 1.0 0.00 0.00 0.00 70 1008.5
20260510023125 78 109 0.0 1.0 0.00 0.00 0.00 68 1007.7
20260510021538 77 143 0.0 1.0 0.00 0.00 0.00 64 1007.5
20260510020027 78 117 0.0 0.0 0.00 0.00 0.00 62 1007.0
20260510014526 78 117 0.0 0.0 0.00 0.00 0.00 62 1006.4
20260510013124 79 103 0.0 1.0 0.00 0.00 0.00 59 1006.6
20260510011530 79 103 0.0 1.0 0.00 0.00 0.00 58 1006.5
20260510010021 80 103 1.0 4.0 0.00 0.00 0.00 56 1006.4
20260510004526 81 103 0.0 2.0 0.00 0.00 0.00 54 1006.1
20260510003120 81 100 2.0 4.0 0.00 0.00 0.00 51 1006.3
20260510001523 82 95 2.0 8.0 0.00 0.00 0.00 53 1006.1
20260510000028 87 124 0.0 2.0 0.00 0.00 0.00 62 1005.9
20260509234521 88 142 0.0 0.0 0.00 0.00 0.00 63 1005.6
20260509233122 88 142 0.0 0.0 0.00 0.00 0.00 59 1005.6
20260509231515 88 142 0.0 1.0 0.00 0.00 0.00 60 1005.4
20260509230016 89 142 0.0 1.0 0.00 0.00 0.00 58 1005.4
20260509224514 90 172 0.0 1.0 0.00 0.00 0.00 58 1005.2
20260509223115 93 150 0.0 0.0 0.00 0.00 0.00 55 1005.4
20260509221519 93 163 0.0 0.0 0.00 0.00 0.00 53 1005.1
20260509220019 93 119 0.0 0.0 0.00 0.00 0.00 55 1005.1
20260509214513 93 130 0.0 1.0 0.00 0.00 0.00 55 1005.2
20260509213112 91 148 0.0 2.0 0.00 0.00 0.00 57 1005.2
20260509211510 92 163 0.0 3.0 0.00 0.00 0.00 54 1005.4
20260509210009 90 171 0.0 2.0 0.00 0.00 0.00 59 1005.5
20260509204506 91 185 0.0 3.0 0.00 0.00 0.00 60 1005.8
20260509203116 91 146 0.0 3.0 0.00 0.00 0.00 59 1006.1
20260509201504 91 139 0.0 3.0 0.00 0.00 0.00 61 1006.2
20260509200001 91 136 0.0 0.0 0.00 0.02 0.00 63 1006.4
20260509194557 88 146 0.0 3.0 0.00 0.02 0.00 67 1006.5